RZO199 LPFR-LPPD

Flight info

Callsign RZO199
Flight time 2h 14m
Altitude 38000
Route ODEMI DCT ULVOT DCT KOMUT/M076F380 DCT 38N020W DCT BEKUN DCT OMOBI
Aircraft A20N/M-SDE2E3FGHIRWXY/LB1

Departure

Time 2026-04-27 07:31
Airport Faro - Gago Coutinho International Airport (LPFR)

Arrival

Time 2026-04-27 09:45
Airport João Paulo II Airport (LPPD)
Time Latitude Longitude Altitude Speed Heading
2026-04-27 07:09 37.01913 -7.96848 20 ft 0 kts 10°
2026-04-27 07:23 37.01905 -7.96850 20 ft 3 kts 12°
2026-04-27 07:23 37.01881 -7.96857 21 ft 3 kts 16°
2026-04-27 07:23 37.01859 -7.96863 23 ft 3 kts 355°
2026-04-27 07:24 37.01851 -7.96862 23 ft 0 kts 341°
2026-04-27 07:26 37.01852 -7.96863 23 ft 1 kts 335°
2026-04-27 07:26 37.01809 -7.96887 20 ft 14 kts 185°
2026-04-27 07:26 37.01716 -7.96904 20 ft 13 kts 193°
2026-04-27 07:26 37.01683 -7.96981 20 ft 10 kts 283°
2026-04-27 07:27 37.01695 -7.97075 20 ft 17 kts 280°
2026-04-27 07:27 37.01729 -7.97307 20 ft 36 kts 280°
2026-04-27 07:27 37.01773 -7.97622 21 ft 36 kts 280°
2026-04-27 07:27 37.01803 -7.97825 21 ft 36 kts 280°
2026-04-27 07:28 37.01857 -7.98216 21 ft 29 kts 279°
2026-04-27 07:28 37.01890 -7.98453 22 ft 20 kts 281°
2026-04-27 07:28 37.01880 -7.98547 22 ft 16 kts 230°
2026-04-27 07:28 37.01824 -7.98571 21 ft 4 kts 190°
2026-04-27 07:29 37.01823 -7.98571 21 ft 0 kts 190°
2026-04-27 07:29 37.01779 -7.98582 22 ft 12 kts 192°
2026-04-27 07:30 37.01722 -7.98552 24 ft 8 kts 115°
2026-04-27 07:30 37.01711 -7.98489 24 ft 9 kts 99°
2026-04-27 07:30 37.01667 -7.98152 23 ft 82 kts 99°
2026-04-27 07:30 37.01523 -7.97117 26 ft 155 kts 100°
2026-04-27 07:31 37.01313 -7.95653 469 ft 181 kts 98°
2026-04-27 07:31 37.01089 -7.94144 1231 ft 174 kts 99°
2026-04-27 07:31 37.00868 -7.92670 1831 ft 174 kts 98°
2026-04-27 07:31 37.00634 -7.91081 2115 ft 198 kts 99°
2026-04-27 07:32 37.00377 -7.89325 2711 ft 208 kts 99°
2026-04-27 07:32 37.00115 -7.87549 3535 ft 208 kts 99°
2026-04-27 07:32 36.99820 -7.85773 4345 ft 210 kts 108°
2026-04-27 07:32 36.99056 -7.84205 5114 ft 216 kts 133°
2026-04-27 07:33 36.97750 -7.83212 5814 ft 231 kts 159°
2026-04-27 07:33 36.96055 -7.83124 6157 ft 264 kts 191°
2026-04-27 07:33 36.94265 -7.83946 6677 ft 281 kts 199°
2026-04-27 07:33 36.92435 -7.84864 7432 ft 285 kts 199°
2026-04-27 07:34 36.90566 -7.85841 8262 ft 290 kts 205°
2026-04-27 07:34 36.88943 -7.87381 9055 ft 298 kts 227°
2026-04-27 07:34 36.87840 -7.89578 9874 ft 302 kts 249°
2026-04-27 07:34 36.87402 -7.92189 10338 ft 319 kts 270°
2026-04-27 07:35 36.87676 -7.95007 10747 ft 333 kts 279°
2026-04-27 07:35 36.88051 -7.97887 11427 ft 338 kts 279°
2026-04-27 07:35 36.88417 -8.00808 12155 ft 342 kts 279°
2026-04-27 07:35 36.88922 -8.03724 12862 ft 346 kts 291°
2026-04-27 07:36 36.89931 -8.06470 13562 ft 350 kts 296°
2026-04-27 07:36 36.90996 -8.09220 14218 ft 353 kts 296°
2026-04-27 07:36 36.92073 -8.11990 14857 ft 356 kts 296°
2026-04-27 07:36 36.93158 -8.14779 15515 ft 358 kts 296°
2026-04-27 07:37 36.94251 -8.17582 16167 ft 360 kts 296°
2026-04-27 07:37 36.95349 -8.20402 16783 ft 363 kts 295°
2026-04-27 07:37 36.96453 -8.23253 17396 ft 366 kts 295°
2026-04-27 07:37 36.97562 -8.26126 18042 ft 368 kts 295°
2026-04-27 07:38 36.98676 -8.29019 18630 ft 370 kts 295°
2026-04-27 07:38 36.99794 -8.31927 19179 ft 372 kts 295°
2026-04-27 07:38 37.00918 -8.34853 19710 ft 375 kts 295°
2026-04-27 07:38 37.02051 -8.37804 20226 ft 378 kts 295°
2026-04-27 07:39 37.03194 -8.40777 20735 ft 381 kts 295°
2026-04-27 07:39 37.04346 -8.43774 21242 ft 384 kts 295°
2026-04-27 07:39 37.05505 -8.46795 21739 ft 386 kts 295°
2026-04-27 07:39 37.06672 -8.49838 22215 ft 389 kts 295°
2026-04-27 07:40 37.07849 -8.52909 22698 ft 392 kts 294°
2026-04-27 07:40 37.09032 -8.56002 23170 ft 395 kts 294°
2026-04-27 07:40 37.10223 -8.59117 23622 ft 398 kts 294°
2026-04-27 07:40 37.11424 -8.62255 24027 ft 401 kts 294°
2026-04-27 07:41 37.12631 -8.65416 24425 ft 403 kts 294°
2026-04-27 07:41 37.13842 -8.68597 24821 ft 405 kts 294°
2026-04-27 07:41 37.15056 -8.71790 25224 ft 407 kts 294°
2026-04-27 07:41 37.16278 -8.75006 25616 ft 409 kts 294°
2026-04-27 07:42 37.17503 -8.78237 25994 ft 412 kts 294°
2026-04-27 07:42 37.18734 -8.81488 26383 ft 414 kts 294°
2026-04-27 07:42 37.19971 -8.84753 26749 ft 416 kts 294°
2026-04-27 07:42 37.21217 -8.88040 27115 ft 418 kts 294°
2026-04-27 07:43 37.22467 -8.91341 27489 ft 420 kts 294°
2026-04-27 07:43 37.23719 -8.94662 27833 ft 422 kts 294°
2026-04-27 07:43 37.24977 -8.98006 28188 ft 425 kts 294°
2026-04-27 07:43 37.26243 -9.01363 28539 ft 427 kts 294°
2026-04-27 07:44 37.27516 -9.04739 28876 ft 429 kts 294°
2026-04-27 07:44 37.28795 -9.08131 29212 ft 431 kts 294°
2026-04-27 07:44 37.30078 -9.11544 29557 ft 433 kts 293°
2026-04-27 07:44 37.31364 -9.14976 29897 ft 435 kts 293°
2026-04-27 07:45 37.32657 -9.18425 30191 ft 438 kts 293°
2026-04-27 07:45 37.33955 -9.21890 30458 ft 440 kts 293°
2026-04-27 07:45 37.35258 -9.25375 30737 ft 442 kts 293°
2026-04-27 07:45 37.36566 -9.28877 31004 ft 444 kts 293°
2026-04-27 07:46 37.37877 -9.32397 31264 ft 445 kts 293°
2026-04-27 07:46 37.39192 -9.35932 31510 ft 447 kts 293°
2026-04-27 07:46 37.40511 -9.39482 31819 ft 448 kts 293°
2026-04-27 07:46 37.41845 -9.43068 32188 ft 447 kts 293°
2026-04-27 07:47 37.43142 -9.46560 32547 ft 446 kts 293°
2026-04-27 07:47 37.44467 -9.50136 32895 ft 445 kts 293°
2026-04-27 07:47 37.45775 -9.53665 33253 ft 444 kts 293°
2026-04-27 07:47 37.47080 -9.57186 33603 ft 444 kts 292°
2026-04-27 07:48 37.48384 -9.60704 33953 ft 443 kts 292°
2026-04-27 07:48 37.49683 -9.64219 34247 ft 443 kts 292°
2026-04-27 07:48 37.50980 -9.67730 34536 ft 442 kts 292°
2026-04-27 07:48 37.52272 -9.71235 34827 ft 441 kts 292°
2026-04-27 07:49 37.53558 -9.74730 35109 ft 439 kts 292°
2026-04-27 07:49 37.54842 -9.78220 35389 ft 438 kts 292°
2026-04-27 07:49 37.56122 -9.81699 35667 ft 437 kts 292°
2026-04-27 07:49 37.57398 -9.85172 35954 ft 436 kts 292°
2026-04-27 07:50 37.58666 -9.88635 36204 ft 435 kts 292°
2026-04-27 07:50 37.59929 -9.92100 36450 ft 434 kts 292°
2026-04-27 07:50 37.61185 -9.95555 36693 ft 433 kts 291°
2026-04-27 07:50 37.62222 -9.99101 36917 ft 430 kts 282°
2026-04-27 07:51 37.62801 -10.02779 37142 ft 426 kts 274°
2026-04-27 07:51 37.63156 -10.06486 37351 ft 426 kts 274°
2026-04-27 07:51 37.63510 -10.10190 37564 ft 425 kts 274°
2026-04-27 07:51 37.63864 -10.13885 37782 ft 424 kts 275°
2026-04-27 07:52 37.64218 -10.17575 37987 ft 424 kts 275°
2026-04-27 07:52 37.64923 -10.24939 38045 ft 421 kts 274°
2026-04-27 07:53 37.65610 -10.32268 38049 ft 420 kts 274°
2026-04-27 07:53 37.66288 -10.39588 38045 ft 420 kts 274°
2026-04-27 07:54 37.66966 -10.46916 38047 ft 420 kts 274°
2026-04-27 07:54 37.67644 -10.54242 38057 ft 420 kts 274°
2026-04-27 07:55 37.68310 -10.61566 38070 ft 420 kts 274°
2026-04-27 07:55 37.68972 -10.68901 38064 ft 420 kts 274°
2026-04-27 07:56 37.69638 -10.76234 38066 ft 420 kts 274°
2026-04-27 07:56 37.70298 -10.83569 38069 ft 421 kts 274°
2026-04-27 07:57 37.70949 -10.90911 38072 ft 421 kts 274°
2026-04-27 07:57 37.71596 -10.98249 38078 ft 420 kts 274°
2026-04-27 07:58 37.72250 -11.05588 38074 ft 420 kts 274°
2026-04-27 07:58 37.72891 -11.12928 38074 ft 421 kts 274°
2026-04-27 07:59 37.73523 -11.20272 38078 ft 420 kts 274°
2026-04-27 07:59 37.74461 -11.31299 38089 ft 421 kts 274°
2026-04-27 08:00 37.75085 -11.38656 38092 ft 421 kts 272°
2026-04-27 08:00 37.75703 -11.46011 38088 ft 421 kts 274°
2026-04-27 08:01 37.76319 -11.53369 38086 ft 421 kts 274°
2026-04-27 08:01 37.76930 -11.60723 38090 ft 421 kts 274°
2026-04-27 08:02 37.77533 -11.68081 38088 ft 421 kts 274°
2026-04-27 08:02 37.78127 -11.75440 38091 ft 421 kts 273°
2026-04-27 08:03 37.78729 -11.82800 38095 ft 421 kts 273°
2026-04-27 08:03 37.79327 -11.90157 38093 ft 421 kts 273°
2026-04-27 08:04 37.79917 -11.97522 38095 ft 421 kts 273°
2026-04-27 08:04 37.80499 -12.04884 38107 ft 421 kts 272°
2026-04-27 08:05 37.81078 -12.12257 38101 ft 422 kts 273°
2026-04-27 08:05 37.81653 -12.19644 38106 ft 422 kts 273°
2026-04-27 08:06 37.82128 -12.25840 38106 ft 422 kts 272°
2026-04-27 08:06 37.82693 -12.33241 38107 ft 423 kts 273°
2026-04-27 08:07 37.83252 -12.40644 38114 ft 423 kts 272°
2026-04-27 08:07 37.83809 -12.48047 38127 ft 423 kts 274°
2026-04-27 08:08 37.84372 -12.55506 38123 ft 423 kts 273°
2026-04-27 08:08 37.84923 -12.62914 38127 ft 423 kts 273°
2026-04-27 08:09 37.85467 -12.70318 38122 ft 423 kts 274°
2026-04-27 08:09 37.86006 -12.77728 38133 ft 423 kts 273°
2026-04-27 08:10 37.86535 -12.85139 38131 ft 423 kts 273°
2026-04-27 08:10 37.87062 -12.92553 38127 ft 423 kts 274°
2026-04-27 08:11 37.87600 -13.00013 38122 ft 423 kts 272°
2026-04-27 08:11 37.88122 -13.07424 38128 ft 423 kts 272°
2026-04-27 08:12 37.88632 -13.14840 38132 ft 423 kts 273°
2026-04-27 08:12 37.89148 -13.22260 38135 ft 423 kts 272°
2026-04-27 08:13 37.89660 -13.29684 38140 ft 423 kts 273°
2026-04-27 08:13 37.90164 -13.37115 38145 ft 423 kts 273°
2026-04-27 08:14 37.90662 -13.44537 38150 ft 423 kts 273°
2026-04-27 08:14 37.91158 -13.51957 38154 ft 423 kts 274°
2026-04-27 08:15 37.91647 -13.59430 38148 ft 423 kts 273°
2026-04-27 08:15 37.92128 -13.66908 38152 ft 423 kts 273°
2026-04-27 08:16 37.92603 -13.74340 38150 ft 423 kts 273°
2026-04-27 08:16 37.93078 -13.81775 38154 ft 423 kts 273°
2026-04-27 08:17 37.93553 -13.89210 38154 ft 424 kts 274°
2026-04-27 08:17 37.94021 -13.96650 38153 ft 424 kts 274°
2026-04-27 08:18 37.94488 -14.04093 38156 ft 424 kts 273°
2026-04-27 08:18 37.94943 -14.11541 38154 ft 424 kts 274°
2026-04-27 08:19 37.95393 -14.18994 38162 ft 424 kts 273°
2026-04-27 08:19 37.95843 -14.26503 38163 ft 425 kts 274°
2026-04-27 08:20 37.96285 -14.33968 38160 ft 425 kts 273°
2026-04-27 08:20 37.96722 -14.41445 38174 ft 425 kts 273°
2026-04-27 08:21 37.97164 -14.48917 38173 ft 425 kts 274°
2026-04-27 08:21 37.97596 -14.56390 38173 ft 425 kts 273°
2026-04-27 08:22 37.98018 -14.63868 38180 ft 425 kts 274°
2026-04-27 08:22 37.98433 -14.71331 38188 ft 424 kts 274°
2026-04-27 08:23 37.98848 -14.78791 38183 ft 424 kts 273°
2026-04-27 08:23 37.99257 -14.86241 38186 ft 424 kts 273°
2026-04-27 08:24 37.99664 -14.93741 38193 ft 424 kts 273°
2026-04-27 08:24 38.00050 -15.01195 38193 ft 424 kts 272°
2026-04-27 08:25 38.00258 -15.08662 38186 ft 424 kts 271°
2026-04-27 08:25 38.00363 -15.16192 38185 ft 424 kts 271°
2026-04-27 08:26 38.00479 -15.23673 38197 ft 424 kts 271°
2026-04-27 08:26 38.00622 -15.31154 38195 ft 424 kts 271°
2026-04-27 08:27 38.00765 -15.38636 38198 ft 424 kts 271°
2026-04-27 08:27 38.00900 -15.46115 38203 ft 425 kts 271°
2026-04-27 08:28 38.01012 -15.53602 38203 ft 425 kts 271°
2026-04-27 08:28 38.01136 -15.61133 38204 ft 424 kts 271°
2026-04-27 08:29 38.01256 -15.68612 38200 ft 424 kts 271°
2026-04-27 08:29 38.01371 -15.76086 38200 ft 424 kts 271°
2026-04-27 08:30 38.01479 -15.83557 38205 ft 424 kts 271°
2026-04-27 08:30 38.01583 -15.91031 38206 ft 424 kts 271°
2026-04-27 08:31 38.01680 -15.98506 38212 ft 424 kts 271°
2026-04-27 08:31 38.01760 -16.04769 38219 ft 424 kts 271°
2026-04-27 08:32 38.01846 -16.12243 38230 ft 423 kts 271°
2026-04-27 08:32 38.01934 -16.19705 38229 ft 423 kts 271°
2026-04-27 08:33 38.02018 -16.27166 38226 ft 423 kts 271°
2026-04-27 08:33 38.02086 -16.34619 38224 ft 423 kts 270°
2026-04-27 08:34 38.02151 -16.42070 38234 ft 422 kts 271°
2026-04-27 08:34 38.02215 -16.49514 38231 ft 422 kts 271°
2026-04-27 08:35 38.02283 -16.56952 38225 ft 422 kts 271°
2026-04-27 08:35 38.02347 -16.64382 38231 ft 421 kts 271°
2026-04-27 08:36 38.02400 -16.71814 38222 ft 421 kts 270°
2026-04-27 08:36 38.02440 -16.79241 38228 ft 421 kts 271°
2026-04-27 08:37 38.02476 -16.86670 38232 ft 421 kts 270°
2026-04-27 08:37 38.02508 -16.94140 38221 ft 427 kts 271°
2026-04-27 08:38 38.02551 -17.01805 38221 ft 436 kts 271°
2026-04-27 08:38 38.02593 -17.09567 38226 ft 444 kts 270°
2026-04-27 08:39 38.02604 -17.17458 38223 ft 449 kts 270°
2026-04-27 08:39 38.02621 -17.25396 38225 ft 451 kts 270°
2026-04-27 08:40 38.02638 -17.33339 38230 ft 450 kts 270°
2026-04-27 08:40 38.02652 -17.41282 38229 ft 450 kts 270°
2026-04-27 08:41 38.02655 -17.49223 38236 ft 450 kts 270°
2026-04-27 08:41 38.02651 -17.57164 38247 ft 450 kts 270°
2026-04-27 08:42 38.02642 -17.65100 38247 ft 450 kts 270°
2026-04-27 08:42 38.02625 -17.73026 38243 ft 449 kts 270°
2026-04-27 08:43 38.02608 -17.80948 38247 ft 449 kts 271°
2026-04-27 08:43 38.02592 -17.88857 38250 ft 448 kts 270°
2026-04-27 08:44 38.02566 -17.96769 38247 ft 449 kts 271°
2026-04-27 08:44 38.02528 -18.04733 38249 ft 448 kts 270°
2026-04-27 08:45 38.02488 -18.12639 38242 ft 448 kts 271°
2026-04-27 08:45 38.02454 -18.20550 38245 ft 449 kts 271°
2026-04-27 08:46 38.02398 -18.28462 38246 ft 449 kts 270°
2026-04-27 08:46 38.02331 -18.36377 38248 ft 449 kts 271°
2026-04-27 08:47 38.02270 -18.44295 38250 ft 449 kts 271°
2026-04-27 08:47 38.02208 -18.52212 38248 ft 449 kts 271°
2026-04-27 08:48 38.02135 -18.60135 38248 ft 449 kts 271°
2026-04-27 08:48 38.02062 -18.68109 38250 ft 449 kts 271°
2026-04-27 08:49 38.01981 -18.76026 38253 ft 449 kts 271°
2026-04-27 08:49 38.01888 -18.83945 38253 ft 449 kts 271°
2026-04-27 08:50 38.01796 -18.91862 38253 ft 449 kts 271°
2026-04-27 08:50 38.01701 -18.99777 38256 ft 449 kts 271°
2026-04-27 08:51 38.01601 -19.07694 38257 ft 449 kts 270°
2026-04-27 08:51 38.01490 -19.15665 38249 ft 449 kts 271°
2026-04-27 08:52 38.01370 -19.23573 38255 ft 449 kts 271°
2026-04-27 08:52 38.01245 -19.31478 38258 ft 448 kts 271°
2026-04-27 08:53 38.01132 -19.39385 38254 ft 448 kts 271°
2026-04-27 08:53 38.01009 -19.47287 38241 ft 448 kts 271°
2026-04-27 08:54 38.00872 -19.55184 38255 ft 448 kts 271°
2026-04-27 08:54 38.00726 -19.63137 38258 ft 448 kts 271°
2026-04-27 08:55 38.00588 -19.71033 38259 ft 448 kts 271°
2026-04-27 08:55 38.00440 -19.78923 38259 ft 448 kts 271°
2026-04-27 08:56 38.00277 -19.86813 38253 ft 447 kts 271°
2026-04-27 08:56 38.00115 -19.94695 38256 ft 447 kts 271°
2026-04-27 08:57 37.99923 -20.06512 38256 ft 446 kts 272°
2026-04-27 08:58 37.99922 -20.14377 38247 ft 446 kts 273°
2026-04-27 08:58 37.99927 -20.22289 38259 ft 445 kts 274°
2026-04-27 08:59 37.99913 -20.30138 38262 ft 445 kts 273°
2026-04-27 08:59 37.99864 -20.37984 38267 ft 445 kts 273°
2026-04-27 09:00 37.99808 -20.45821 38258 ft 445 kts 273°
2026-04-27 09:00 37.99760 -20.53655 38249 ft 444 kts 274°
2026-04-27 09:01 37.99709 -20.61483 38262 ft 444 kts 274°
2026-04-27 09:01 37.99660 -20.67983 38257 ft 444 kts 274°
2026-04-27 09:02 37.99592 -20.75799 38262 ft 443 kts 274°
2026-04-27 09:02 37.99520 -20.83613 38232 ft 443 kts 273°
2026-04-27 09:03 37.99438 -20.91476 38252 ft 443 kts 273°
2026-04-27 09:03 37.99352 -20.99281 38255 ft 443 kts 273°
2026-04-27 09:04 37.99269 -21.07076 38259 ft 442 kts 273°
2026-04-27 09:04 37.99187 -21.14875 38238 ft 442 kts 273°
2026-04-27 09:05 37.99090 -21.22668 38253 ft 442 kts 273°
2026-04-27 09:05 37.98983 -21.30453 38259 ft 442 kts 273°
2026-04-27 09:06 37.98879 -21.38236 38258 ft 441 kts 272°
2026-04-27 09:06 37.98768 -21.46016 38258 ft 441 kts 272°
2026-04-27 09:07 37.98653 -21.53841 38262 ft 441 kts 272°
2026-04-27 09:07 37.98527 -21.61599 38271 ft 440 kts 272°
2026-04-27 09:08 37.98404 -21.69341 38271 ft 439 kts 272°
2026-04-27 09:08 37.98272 -21.77082 38268 ft 439 kts 272°
2026-04-27 09:09 37.98140 -21.84820 38256 ft 439 kts 272°
2026-04-27 09:09 37.97993 -21.92550 38268 ft 438 kts 271°
2026-04-27 09:10 37.97846 -22.00267 38274 ft 438 kts 271°
2026-04-27 09:10 37.97695 -22.07974 38274 ft 437 kts 271°
2026-04-27 09:11 37.97542 -22.15682 38270 ft 437 kts 271°
2026-04-27 09:11 37.97383 -22.23386 38269 ft 437 kts 271°
2026-04-27 09:12 37.97216 -22.31091 38271 ft 437 kts 271°
2026-04-27 09:12 37.97045 -22.38792 38272 ft 437 kts 271°
2026-04-27 09:13 37.96869 -22.46545 38255 ft 437 kts 271°
2026-04-27 09:13 37.96688 -22.54252 38262 ft 438 kts 271°
2026-04-27 09:14 37.96500 -22.61960 38272 ft 438 kts 271°
2026-04-27 09:14 37.96310 -22.69671 38273 ft 438 kts 271°
2026-04-27 09:15 37.96118 -22.77381 38275 ft 438 kts 271°
2026-04-27 09:15 37.95925 -22.85085 38272 ft 437 kts 271°
2026-04-27 09:16 37.95707 -22.92838 38275 ft 437 kts 270°
2026-04-27 09:16 37.95487 -23.00540 38274 ft 437 kts 270°
2026-04-27 09:17 37.95274 -23.08241 38276 ft 437 kts 270°
2026-04-27 09:17 37.95059 -23.15996 38268 ft 437 kts 270°
2026-04-27 09:18 37.94833 -23.23695 38275 ft 437 kts 270°
2026-04-27 09:18 37.94605 -23.31391 38277 ft 437 kts 270°
2026-04-27 09:19 37.94361 -23.39077 38277 ft 437 kts 270°
2026-04-27 09:19 37.94120 -23.46762 38270 ft 436 kts 269°
2026-04-27 09:20 37.93872 -23.54426 38278 ft 435 kts 269°
2026-04-27 09:20 37.93620 -23.62081 38277 ft 435 kts 269°
2026-04-27 09:21 37.93364 -23.69725 38271 ft 434 kts 269°
2026-04-27 09:21 37.93101 -23.77353 38261 ft 433 kts 269°
2026-04-27 09:22 37.92841 -23.84974 38270 ft 433 kts 269°
2026-04-27 09:22 37.92577 -23.92521 37630 ft 425 kts 269°
2026-04-27 09:22 37.92446 -23.96254 37038 ft 423 kts 269°
2026-04-27 09:23 37.92313 -23.99959 36488 ft 420 kts 269°
2026-04-27 09:23 37.92176 -24.03641 35966 ft 417 kts 269°
2026-04-27 09:23 37.92036 -24.07293 35444 ft 413 kts 269°
2026-04-27 09:23 37.91894 -24.10916 34813 ft 413 kts 269°
2026-04-27 09:24 37.91753 -24.14587 33885 ft 420 kts 269°
2026-04-27 09:24 37.91610 -24.18332 33148 ft 420 kts 269°
2026-04-27 09:24 37.91468 -24.22011 32533 ft 417 kts 269°
2026-04-27 09:24 37.91325 -24.25666 31960 ft 414 kts 269°
2026-04-27 09:25 37.91184 -24.29292 31413 ft 411 kts 269°
2026-04-27 09:25 37.91043 -24.32891 30878 ft 408 kts 269°
2026-04-27 09:25 37.90901 -24.36467 30354 ft 405 kts 269°
2026-04-27 09:25 37.90761 -24.40010 29756 ft 402 kts 268°
2026-04-27 09:26 37.90622 -24.43530 29128 ft 399 kts 268°
2026-04-27 09:26 37.90484 -24.47022 28512 ft 397 kts 268°
2026-04-27 09:26 37.90343 -24.50552 27412 ft 406 kts 268°
2026-04-27 09:26 37.90196 -24.54168 26323 ft 416 kts 268°
2026-04-27 09:27 37.90046 -24.57860 25244 ft 424 kts 267°
2026-04-27 09:27 37.89892 -24.61593 24578 ft 423 kts 267°
2026-04-27 09:27 37.89736 -24.65280 24052 ft 417 kts 267°
2026-04-27 09:27 37.89580 -24.68921 23468 ft 412 kts 267°
2026-04-27 09:28 37.89425 -24.72561 22935 ft 405 kts 266°
2026-04-27 09:28 37.89275 -24.76091 22429 ft 398 kts 266°
2026-04-27 09:28 37.89125 -24.79567 21922 ft 393 kts 266°
2026-04-27 09:28 37.89144 -24.82998 21418 ft 388 kts 274°
2026-04-27 09:29 37.89333 -24.86382 20928 ft 383 kts 274°
2026-04-27 09:29 37.89517 -24.89731 20438 ft 379 kts 274°
2026-04-27 09:29 37.89695 -24.93044 19956 ft 376 kts 274°
2026-04-27 09:29 37.89865 -24.96332 19487 ft 373 kts 274°
2026-04-27 09:30 37.89978 -24.98538 19163 ft 371 kts 274°
2026-04-27 09:30 37.90142 -25.01783 18704 ft 368 kts 274°
2026-04-27 09:30 37.90306 -25.05008 18197 ft 366 kts 274°
2026-04-27 09:30 37.90468 -25.08199 17774 ft 360 kts 274°
2026-04-27 09:31 37.90629 -25.11345 17317 ft 356 kts 274°
2026-04-27 09:31 37.90790 -25.14462 16857 ft 353 kts 274°
2026-04-27 09:31 37.90949 -25.17554 16404 ft 351 kts 273°
2026-04-27 09:31 37.91106 -25.20624 15957 ft 348 kts 273°
2026-04-27 09:32 37.91263 -25.23675 15520 ft 346 kts 273°
2026-04-27 09:32 37.91415 -25.26706 15084 ft 344 kts 272°
2026-04-27 09:32 37.91563 -25.29722 14653 ft 342 kts 272°
2026-04-27 09:32 37.91711 -25.32719 14232 ft 340 kts 272°
2026-04-27 09:33 37.91860 -25.35702 13784 ft 339 kts 272°
2026-04-27 09:33 37.92004 -25.38670 13313 ft 337 kts 272°
2026-04-27 09:33 37.92144 -25.41624 12847 ft 335 kts 272°
2026-04-27 09:33 37.92287 -25.44559 12376 ft 333 kts 271°
2026-04-27 09:34 37.92429 -25.47485 11939 ft 332 kts 271°
2026-04-27 09:34 37.92571 -25.50391 11494 ft 330 kts 271°
2026-04-27 09:34 37.92711 -25.53284 11024 ft 329 kts 271°
2026-04-27 09:34 37.92848 -25.56161 10539 ft 323 kts 270°
2026-04-27 09:35 37.92981 -25.58946 10066 ft 311 kts 270°
2026-04-27 09:35 37.93068 -25.61632 9539 ft 298 kts 265°
2026-04-27 09:35 37.93002 -25.64214 9031 ft 289 kts 265°
2026-04-27 09:35 37.92941 -25.66767 8516 ft 283 kts 265°
2026-04-27 09:36 37.92881 -25.69264 8019 ft 285 kts 264°
2026-04-27 09:36 37.92818 -25.71778 7526 ft 287 kts 265°
2026-04-27 09:36 37.92756 -25.74270 7030 ft 279 kts 264°
2026-04-27 09:36 37.92697 -25.76685 6551 ft 270 kts 264°
2026-04-27 09:37 37.92640 -25.79022 6038 ft 262 kts 264°
2026-04-27 09:37 37.92585 -25.81300 5537 ft 255 kts 264°
2026-04-27 09:37 37.92531 -25.83518 5115 ft 246 kts 264°
2026-04-27 09:37 37.92415 -25.85613 4818 ft 231 kts 254°
2026-04-27 09:38 37.91859 -25.87476 4524 ft 224 kts 236°
2026-04-27 09:38 37.90884 -25.88974 4241 ft 218 kts 217°
2026-04-27 09:38 37.89636 -25.89973 4074 ft 208 kts 201°
2026-04-27 09:38 37.88268 -25.90485 3870 ft 203 kts 193°
2026-04-27 09:39 37.86913 -25.90907 3670 ft 199 kts 193°
2026-04-27 09:39 37.85565 -25.91331 3479 ft 195 kts 193°
2026-04-27 09:39 37.84262 -25.91742 3273 ft 191 kts 193°
2026-04-27 09:39 37.83011 -25.92136 3093 ft 180 kts 193°
2026-04-27 09:40 37.81825 -25.92511 2883 ft 172 kts 193°
2026-04-27 09:40 37.80674 -25.92632 2701 ft 162 kts 169°
2026-04-27 09:40 37.79694 -25.92005 2491 ft 158 kts 141°
2026-04-27 09:40 37.79116 -25.90837 2287 ft 159 kts 112°
2026-04-27 09:41 37.78830 -25.89532 2188 ft 148 kts 111°
2026-04-27 09:41 37.78560 -25.88308 2207 ft 143 kts 112°
2026-04-27 09:41 37.78296 -25.87110 2186 ft 141 kts 111°
2026-04-27 09:41 37.78035 -25.85927 2181 ft 139 kts 112°
2026-04-27 09:42 37.77775 -25.84749 2179 ft 140 kts 113°
2026-04-27 09:42 37.77511 -25.83555 2185 ft 142 kts 112°
2026-04-27 09:42 37.77249 -25.82355 2154 ft 142 kts 111°
2026-04-27 09:42 37.76998 -25.81145 2013 ft 142 kts 109°
2026-04-27 09:43 37.76767 -25.79945 1878 ft 139 kts 110°
2026-04-27 09:43 37.76558 -25.78758 1742 ft 139 kts 108°
2026-04-27 09:43 37.76367 -25.77568 1480 ft 138 kts 107°
2026-04-27 09:43 37.76195 -25.76376 1217 ft 136 kts 104°
2026-04-27 09:44 37.76008 -25.75208 1056 ft 134 kts 112°
2026-04-27 09:44 37.75623 -25.74139 889 ft 135 kts 118°
2026-04-27 09:44 37.75239 -25.73057 783 ft 136 kts 112°
2026-04-27 09:44 37.74894 -25.71949 574 ft 133 kts 114°
2026-04-27 09:45 37.74554 -25.70884 291 ft 125 kts 112°
2026-04-27 09:45 37.74259 -25.69959 237 ft 100 kts 111°
2026-04-27 09:45 37.74044 -25.69276 216 ft 66 kts 111°
2026-04-27 09:45 37.73910 -25.68852 195 ft 42 kts 111°
2026-04-27 09:46 37.73840 -25.68624 197 ft 23 kts 111°
2026-04-27 09:46 37.73747 -25.68528 189 ft 16 kts 127°
2026-04-27 09:46 37.73802 -25.68501 194 ft 14 kts 295°
2026-04-27 09:46 37.73842 -25.68635 191 ft 25 kts 292°
2026-04-27 09:47 37.73913 -25.68860 202 ft 27 kts 291°
2026-04-27 09:47 37.73976 -25.69062 209 ft 22 kts 292°
2026-04-27 09:47 37.74053 -25.69299 215 ft 38 kts 292°
2026-04-27 09:47 37.74169 -25.69669 230 ft 49 kts 291°
2026-04-27 09:48 37.74291 -25.70058 240 ft 46 kts 291°
2026-04-27 09:48 37.74480 -25.70352 258 ft 42 kts 324°
2026-04-27 09:48 37.74634 -25.70586 272 ft 32 kts 294°
2026-04-27 09:48 37.74715 -25.70837 272 ft 26 kts 291°
2026-04-27 09:49 37.74767 -25.71002 272 ft 10 kts 292°
2026-04-27 09:49 37.74819 -25.71011 273 ft 8 kts 20°
2026-04-27 09:49 37.74844 -25.70997 271 ft 0 kts 24°